User: anonymous   Login
Location: Writing-on-Stone Provincial Park
(49.0825°N, 111.6163°W)
Time: 11:52:47
(UTC-06:00)
Language:

BREEZE-M DEB (TANK) - Orbit

View from above orbital plane
View from above orbital plane
View from above satellite
View from above satellite

Ground track
Ground track

The orbit data is extracted from the following two-line orbital elements,

1 29649U 06056B   17116.73016594 +.00002265 +00000-0 +62653-3 0  9998
2 29649 049.4861 271.3107 5368439 129.2574 292.1759 04.99462066185211
Epoch (UTC): 26 April 2017 17:31:26
Eccentricity: 0.5368439
inclination: 49.4861°
perigee height: 317 km
apogee height: 15839 km
right ascension of ascending node: 271.3107°
argument of perigee: 129.2574°
revolutions per day: 4.99462066
mean anomaly at epoch: 292.1759°
orbit number at epoch: 18521

The dashed part of the orbit path shows where the satellite is in the earth's shadow,  

DLR